Weather History for Morrisville, VT

Change the Weather History Date:

Friday, August 23, 2013

  Actual Average Record
Temperature  
Mean Temperature 59 °F 65 °F  
Max Temperature 71 °F 77 °F 84 °F (2008)
Min Temperature 47 °F 52 °F 46 °F (2003)
Degree Days  
Heating Degree Days 6 2  
Month to date heating degree days 44 41  
Since 1 June heating degree days 187 194  
Since 1 July heating degree days 57 71  
Cooling Degree Days 0 2  
Month to date cooling degree days 43 62  
Year to date cooling degree days 325 230  
Since 1 June cooling degree days 305 222  
Growing Degree Days 10 (Base 50)    
Moisture  
Dew Point 53 °F    
Average Humidity 71    
Maximum Humidity 97    
Minimum Humidity 44    
Precipitation  
Precipitation 0.00 in 0.12 in 0.19 in (2007)
Month to date precipitation 2.39 3.15  
Year to date precipitation 29.62 22.88  
Sea Level Pressure  
Sea Level Pressure 30.06 in    
Wind  
Wind Speed 5 mph (NNW)    
Max Wind Speed 15 mph    
Max Gust Speed 21 mph    
Visibility 9 miles    
Events      
T = Trace of Precipitation, MM = Missing Value Source: NWS Daily Summary

Daily Weather History Graph

Daily Weather History Graph

Search for Another Location

Airport:

Trip Planner

Search our weather history database for the weather conditions in past years. The results will help you decide how hot, cold, wet, or windy it might be!

Date:

Astronomy

Aug. 23, 2013 Rise Set
Actual Time 6:02 AM EDT 7:42 PM EDT
Civil Twilight 5:31 AM EDT 8:13 PM EDT
Nautical Twilight 4:54 AM EDT 8:50 PM EDT
Astronomical Twilight 4:14 AM EDT 9:30 PM EDT
Moon 8:48 PM EDT (8/23) 9:04 AM EDT (8/23)
Length of Visible Light 14h 41m
Length of Day
13h 39m
Waning Gibbous, 91% of the Moon is Illuminated
Aug 23
Waning Gibbous
Aug 28
Last Quarter
Sep 5
New
Sep 12
First Quarter
Sep 19
Full

Hourly Weather History & Observations

Time (EDT) Temp. Dew Point Humidity Pressure Visibility Wind Dir Wind Speed Gust Speed Precip Events Conditions
12:54 AM 64.0 °F 62.1 °F 93% 29.91 in 7.0 mi Calm Calm - 0.03 in   Scattered Clouds
1:54 AM 64.0 °F 60.1 °F 87% 29.91 in 10.0 mi Calm Calm - N/A   Clear
2:54 AM 64.0 °F 60.1 °F 87% 29.92 in 10.0 mi NNW 4.6 mph - N/A   Clear
3:54 AM 61.0 °F 59.0 °F 93% 29.94 in 7.0 mi Calm Calm - N/A   Partly Cloudy
4:54 AM 60.1 °F 57.9 °F 93% 29.95 in 5.0 mi Calm Calm - N/A   Clear
5:01 AM 57.2 °F 57.2 °F 100% 29.95 in 1.8 mi Calm Calm - N/A   Clear
5:07 AM 60.8 °F 57.2 °F 88% 29.95 in 3.0 mi NW 4.6 mph - N/A   Clear
5:54 AM 61.0 °F 57.0 °F 87% 29.97 in 10.0 mi NNW 4.6 mph - N/A   Scattered Clouds
7:54 AM 63.0 °F 57.0 °F 81% 30.01 in 10.0 mi North 4.6 mph - N/A   Partly Cloudy
8:15 AM 62.6 °F 57.2 °F 82% 30.02 in 10.0 mi NNE 3.5 mph - N/A   Mostly Cloudy
8:54 AM 64.9 °F 57.0 °F 75% 30.02 in 10.0 mi NNE 5.8 mph - N/A   Overcast
9:54 AM 66.0 °F 55.9 °F 70% 30.05 in 10.0 mi Variable 4.6 mph - N/A   Mostly Cloudy
10:08 AM 66.2 °F 53.6 °F 64% 30.05 in 10.0 mi NW 8.1 mph - N/A   Scattered Clouds
10:54 AM 68.0 °F 51.1 °F 55% 30.06 in 10.0 mi NW 8.1 mph - N/A   Clear
11:54 AM 68.0 °F 50.0 °F 52% 30.07 in 10.0 mi NNW 12.7 mph 19.6 mph N/A   Clear
12:54 PM 69.1 °F 50.0 °F 51% 30.07 in 10.0 mi NNW 12.7 mph 16.1 mph N/A   Partly Cloudy
1:54 PM 69.1 °F 46.9 °F 45% 30.08 in 10.0 mi NNW 9.2 mph 18.4 mph N/A   Clear
2:54 PM 70.0 °F 48.9 °F 47% 30.09 in 10.0 mi NNW 6.9 mph - N/A   Partly Cloudy
3:54 PM 70.0 °F 48.9 °F 47% 30.10 in 10.0 mi NNW 13.8 mph 20.7 mph N/A   Clear
4:54 PM 66.9 °F 48.0 °F 51% 30.12 in 10.0 mi NW 8.1 mph - N/A   Clear
5:54 PM 68.0 °F 48.0 °F 49% 30.14 in 10.0 mi NNW 6.9 mph - N/A   Clear
6:54 PM 64.0 °F 48.9 °F 58% 30.14 in 10.0 mi NW 4.6 mph - N/A   Clear
7:54 PM 59.0 °F 51.1 °F 75% 30.16 in 10.0 mi Calm Calm - N/A   Clear
8:54 PM 55.0 °F 51.1 °F 86% 30.18 in 10.0 mi Calm Calm - N/A   Clear
9:54 PM 52.0 °F 50.0 °F 93% 30.20 in 10.0 mi Calm Calm - N/A   Clear
10:54 PM 50.0 °F 48.0 °F 93% 30.22 in 10.0 mi Calm Calm - N/A   Clear
11:54 PM 48.9 °F 46.9 °F 93% 30.24 in 10.0 mi Calm Calm - 0.01 in   Clear